User: anonymous   Login
Location: Franzen
(48.6167°N, 15.3833°E)
Time: 10:06:22
(UTC+00:00)
Language:

Courier 1B Rocket - Orbit

View from above orbital plane
View from above orbital plane
View from above satellite
View from above satellite

Ground track
Ground track

The orbit data is extracted from the following two-line orbital elements,

1 00059U 60013B   21214.81404507  .00000103  00000-0  19004-4 0  9995
2 00059  28.2472 265.1273 0189194 138.8151 222.6837 13.52986590  2017
Epoch (UTC): 02 August 2021 19:32:13
Eccentricity: 0.0189194
inclination: 28.2472°
perigee height: 920 km
apogee height: 1202 km
right ascension of ascending node: 265.1273°
argument of perigee: 138.8151°
revolutions per day: 13.52986590
mean anomaly at epoch: 222.6837°
orbit number at epoch: 201

The dashed part of the orbit path shows where the satellite is in the earth's shadow,  

DLR